Monroe, NC

10:54 AM EST on December 13, 2017 (GMT -0500)
Monroe

Weather History for KEQY - April, 2013

Change the Weather History Date:

Monday, April 22, 2013

  Actual Average (KCLT) Record (KCLT)
Temperature  
Mean Temperature 52 °F -  
Max Temperature 64 °F 73 °F 91 °F (1957)
Min Temperature 41 °F 50 °F 33 °F (1978)
Degree Days  
Heating Degree Days 13    
Growing Degree Days 2 (Base 50)    
Moisture  
Dew Point 33 °F    
Average Humidity 52    
Maximum Humidity 82    
Minimum Humidity 25    
Precipitation  
Precipitation 0.00 in - - ()
Sea Level Pressure  
Sea Level Pressure 30.36 in    
Wind  
Wind Speed 9 mph (NE)    
Max Wind Speed 18 mph    
Max Gust Speed 24 mph    
Visibility 10 miles    
Events Rain    
Averages and records for this station are not official NWS values.
T = Trace of Precipitation, MM = Missing Value Source: NWS Daily Summary

Daily Weather History Graph

Daily Weather History Graph

Search for Another Location

Airport or City:

Trip Planner

Search our weather history database for the weather conditions in past years. The results will help you decide how hot, cold, wet, or windy it might be!

Date:

Astronomy

Apr. 22, 2013 Rise Set
Actual Time 6:41 AM EDT 8:00 PM EDT
Civil Twilight 6:15 AM EDT 8:27 PM EDT
Nautical Twilight 5:43 AM EDT 8:59 PM EDT
Astronomical Twilight 5:10 AM EDT 9:32 PM EDT
Moon 4:54 PM EDT (4/22) 4:27 AM EDT (4/22)
Length of Visible Light 14h 12m
Length of Day
13h 19m
Waxing Gibbous, 87% of the Moon is Illuminated
Apr 22
Waxing Gibbous
Apr 25
Full
May 2
Last Quarter
May 9
New
May 18
First Quarter

Hourly Weather History & Observations

Time (EDT) Temp. Windchill Dew Point Humidity Pressure Visibility Wind Dir Wind Speed Gust Speed Precip Events Conditions
12:53 AM 48.9 °F - 39.9 °F 71% 30.44 in 10.0 mi ENE 5.8 mph - N/A   Clear
1:53 AM 48.0 °F - 39.0 °F 71% 30.43 in 10.0 mi ENE 6.9 mph - N/A   Clear
2:53 AM 46.0 °F 42.5 °F 39.0 °F 76% 30.41 in 10.0 mi ENE 6.9 mph - N/A   Clear
3:53 AM 45.0 °F 40.6 °F 39.0 °F 80% 30.40 in 10.0 mi ENE 8.1 mph - N/A   Clear
4:53 AM 44.1 °F 39.0 °F 37.0 °F 76% 30.40 in 10.0 mi ENE 9.2 mph 16.1 mph N/A   Clear
5:53 AM 42.1 °F 37.1 °F 37.0 °F 82% 30.41 in 10.0 mi NE 8.1 mph - N/A   Clear
6:53 AM 41.0 °F 34.7 °F 34.0 °F 76% 30.43 in 10.0 mi NE 10.4 mph - N/A   Clear
7:53 AM 43.0 °F 36.8 °F 32.0 °F 65% 30.45 in 10.0 mi NNE 11.5 mph - N/A   Clear
8:53 AM 45.0 °F 38.2 °F 30.9 °F 58% 30.45 in 10.0 mi NNE 15.0 mph - N/A   Clear
9:53 AM 48.9 °F - 28.9 °F 46% 30.43 in 10.0 mi NE 18.4 mph - N/A   Clear
10:53 AM 52.0 °F - 28.9 °F 41% 30.43 in 10.0 mi NNE 15.0 mph 21.9 mph 0.00 in   Clear
11:53 AM 55.0 °F - 27.0 °F 34% 30.40 in 10.0 mi NE 11.5 mph - 0.00 in   Clear
12:53 PM 57.9 °F - 26.1 °F 30% 30.36 in 10.0 mi NNE 12.7 mph 24.2 mph 0.00 in Rain Light Rain
1:53 PM 61.0 °F - 26.1 °F 26% 30.34 in 10.0 mi ENE 11.5 mph 18.4 mph 0.00 in   Clear
2:53 PM 61.0 °F - 27.0 °F 27% 30.32 in 10.0 mi NNE 10.4 mph 18.4 mph N/A   Clear
3:53 PM 62.1 °F - 26.1 °F 25% 30.30 in 10.0 mi NE 10.4 mph 19.6 mph N/A   Clear
4:53 PM 63.0 °F - 27.0 °F 26% 30.27 in 10.0 mi NE 10.4 mph - N/A   Clear
5:53 PM 63.0 °F - 28.0 °F 27% 30.26 in 10.0 mi NNE 10.4 mph - N/A   Clear
6:53 PM 62.1 °F - 30.0 °F 30% 30.25 in 10.0 mi North 8.1 mph - N/A   Clear
7:53 PM 55.9 °F - 34.0 °F 44% 30.26 in 10.0 mi NNE 6.9 mph - N/A   Clear
8:53 PM 53.1 °F - 35.1 °F 50% 30.28 in 10.0 mi NE 6.9 mph - N/A   Clear
9:53 PM 53.1 °F - 36.0 °F 52% 30.29 in 10.0 mi NE 5.8 mph - N/A   Clear
10:53 PM 51.1 °F - 37.0 °F 59% 30.29 in 10.0 mi ENE 4.6 mph - N/A   Clear
11:53 PM 50.0 °F - 39.0 °F 66% 30.27 in 10.0 mi ENE 3.5 mph - N/A   Mostly Cloudy